owner,sensor,date,latitude,longitude,vertical_datum,mass_concentration_of_oxygen_in_sea_water,qcFlag 
DISL,ioos:station:DISL:PPTA:1,2012-12-01T00:00:00Z,30.2791,-87.5561,1.331,7.72,1111122 
DISL,ioos:station:DISL:PPTA:1,2012-12-01T00:30:00Z,30.2791,-87.5561,1.347,7.72,1111122 
DISL,ioos:station:DISL:PPTA:1,2012-12-01T01:00:00Z,30.2791,-87.5561,1.369,7.59,1111122 
DISL,ioos:station:DISL:PPTA:1,2012-12-01T01:30:00Z,30.2791,-87.5561,1.389,7.37,1111122 
DISL,ioos:station:DISL:PPTA:1,2012-12-01T02:00:00Z,30.2791,-87.5561,1.411,7.3,1111122 
DISL,ioos:station:DISL:PPTA:1,2012-12-01T02:30:00Z,30.2791,-87.5561,1.426,7.47,1111122 
DISL,ioos:station:DISL:PPTA:1,2012-12-01T03:00:00Z,30.2791,-87.5561,1.438,7.45,1111122 
DISL,ioos:station:DISL:PPTA:1,2012-12-01T03:30:00Z,30.2791,-87.5561,1.428,7.32,1111122 
DISL,ioos:station:DISL:PPTA:1,2012-12-01T04:00:00Z,30.2791,-87.5561,1.43,7.35,1111122 
DISL,ioos:station:DISL:PPTA:1,2012-12-01T04:30:00Z,30.2791,-87.5561,1.426,7.54,1111122 
DISL,ioos:station:DISL:PPTA:1,2012-12-01T05:00:00Z,30.2791,-87.5561,1.438,7.5,1111122 
DISL,ioos:station:DISL:PPTA:1,2012-12-01T05:30:00Z,30.2791,-87.5561,1.427,7.49,1111122 
DISL,ioos:station:DISL:PPTA:1,2012-12-01T06:00:00Z,30.2791,-87.5561,1.423,7.36,1111122 
DISL,ioos:station:DISL:PPTA:1,2012-12-01T06:30:00Z,30.2791,-87.5561,1.425,7.45,1111122 
DISL,ioos:station:DISL:PPTA:1,2012-12-01T07:00:00Z,30.2791,-87.5561,1.403,7.53,1111122 
DISL,ioos:station:DISL:PPTA:1,2012-12-01T07:30:00Z,30.2791,-87.5561,1.376,7.38,1111122 
DISL,ioos:station:DISL:PPTA:1,2012-12-01T08:00:00Z,30.2791,-87.5561,1.368,7.37,1111122 
DISL,ioos:station:DISL:PPTA:1,2012-12-01T08:30:00Z,30.2791,-87.5561,1.341,7.55,1111122 
DISL,ioos:station:DISL:PPTA:1,2012-12-01T09:00:00Z,30.2791,-87.5561,1.324,7.86,1111122 
DISL,ioos:station:DISL:PPTA:1,2012-12-01T09:30:00Z,30.2791,-87.5561,1.312,7.59,1111122 
DISL,ioos:station:DISL:PPTA:1,2012-12-01T10:00:00Z,30.2791,-87.5561,1.302,7.58,1111122 
DISL,ioos:station:DISL:PPTA:1,2012-12-01T10:30:00Z,30.2791,-87.5561,1.29,7.55,1111122 
DISL,ioos:station:DISL:PPTA:1,2012-12-01T11:00:00Z,30.2791,-87.5561,1.275,7.59,1111122 
DISL,ioos:station:DISL:PPTA:1,2012-12-01T11:30:00Z,30.2791,-87.5561,1.265,7.57,1111122 
DISL,ioos:station:DISL:PPTA:1,2012-12-01T12:00:00Z,30.2791,-87.5561,1.254,7.52,1111122 
DISL,ioos:station:DISL:PPTA:1,2012-12-01T12:30:00Z,30.2791,-87.5561,1.242,7.57,1111122 
DISL,ioos:station:DISL:PPTA:1,2012-12-01T13:00:00Z,30.2791,-87.5561,1.239,7.73,1111122 
DISL,ioos:station:DISL:PPTA:1,2012-12-01T13:30:00Z,30.2791,-87.5561,1.228,7.84,1111122 
DISL,ioos:station:DISL:PPTA:1,2012-12-01T14:00:00Z,30.2791,-87.5561,1.22,7.87,1111122 
DISL,ioos:station:DISL:PPTA:1,2012-12-01T14:30:00Z,30.2791,-87.5561,1.207,7.96,1111122 
DISL,ioos:station:DISL:PPTA:1,2012-12-01T15:00:00Z,30.2791,-87.5561,1.199,7.96,1111122 
DISL,ioos:station:DISL:PPTA:1,2012-12-01T15:30:00Z,30.2791,-87.5561,1.199,7.92,1111122 
DISL,ioos:station:DISL:PPTA:1,2012-12-01T16:00:00Z,30.2791,-87.5561,1.196,7.98,1111122 
DISL,ioos:station:DISL:PPTA:1,2012-12-01T16:30:00Z,30.2791,-87.5561,1.2,8.01,1111122 
DISL,ioos:station:DISL:PPTA:1,2012-12-01T17:00:00Z,30.2791,-87.5561,1.201,8.11,1111122 
DISL,ioos:station:DISL:PPTA:1,2012-12-01T17:30:00Z,30.2791,-87.5561,1.195,8.36,1111122 
DISL,ioos:station:DISL:PPTA:1,2012-12-01T18:00:00Z,30.2791,-87.5561,1.203,8.41,1111122 
DISL,ioos:station:DISL:PPTA:1,2012-12-01T18:30:00Z,30.2791,-87.5561,1.205,8.28,1111122 
DISL,ioos:station:DISL:PPTA:1,2012-12-01T19:00:00Z,30.2791,-87.5561,1.224,8.33,1111122 
DISL,ioos:station:DISL:PPTA:1,2012-12-01T19:30:00Z,30.2791,-87.5561,1.222,8.19,1111122 
DISL,ioos:station:DISL:PPTA:1,2012-12-01T20:00:00Z,30.2791,-87.5561,1.219,8.42,1111122 
DISL,ioos:station:DISL:PPTA:1,2012-12-01T20:30:00Z,30.2791,-87.5561,1.232,8.44,1111122 
DISL,ioos:station:DISL:PPTA:1,2012-12-01T21:00:00Z,30.2791,-87.5561,1.231,8.33,1111122 
DISL,ioos:station:DISL:PPTA:1,2012-12-01T21:30:00Z,30.2791,-87.5561,1.234,8.31,1111122 
DISL,ioos:station:DISL:PPTA:1,2012-12-01T22:00:00Z,30.2791,-87.5561,1.246,8.31,1111122 
DISL,ioos:station:DISL:PPTA:1,2012-12-01T22:30:00Z,30.2791,-87.5561,1.252,8.08,1111122 
DISL,ioos:station:DISL:PPTA:1,2012-12-01T23:00:00Z,30.2791,-87.5561,1.276,7.87,1111122 
DISL,ioos:station:DISL:PPTA:1,2012-12-01T23:30:00Z,30.2791,-87.5561,1.293,7.73,1111122 
DISL,ioos:station:DISL:PPTA:1,2012-12-02T00:00:00Z,30.2791,-87.5561,1.309,7.59,1111122 
DISL,ioos:station:DISL:PPTA:1,2012-12-02T00:30:00Z,30.2791,-87.5561,1.335,7.67,1111122 
DISL,ioos:station:DISL:PPTA:1,2012-12-02T01:00:00Z,30.2791,-87.5561,1.353,7.66,1111122 
DISL,ioos:station:DISL:PPTA:1,2012-12-02T01:30:00Z,30.2791,-87.5561,1.373,7.37,1111122 
DISL,ioos:station:DISL:PPTA:1,2012-12-02T02:00:00Z,30.2791,-87.5561,1.385,7.53,1111122 
DISL,ioos:station:DISL:PPTA:1,2012-12-02T02:30:00Z,30.2791,-87.5561,1.397,7.35,1111122 
DISL,ioos:station:DISL:PPTA:1,2012-12-02T03:00:00Z,30.2791,-87.5561,1.413,7.5,1111122 
DISL,ioos:station:DISL:PPTA:1,2012-12-02T03:30:00Z,30.2791,-87.5561,1.409,7.42,1111122 
DISL,ioos:station:DISL:PPTA:1,2012-12-02T04:00:00Z,30.2791,-87.5561,1.416,7.13,1111122 
DISL,ioos:station:DISL:PPTA:1,2012-12-02T04:30:00Z,30.2791,-87.5561,1.424,7.4,1111122 
DISL,ioos:station:DISL:PPTA:1,2012-12-02T05:00:00Z,30.2791,-87.5561,1.426,7.32,1111122 
DISL,ioos:station:DISL:PPTA:1,2012-12-02T05:30:00Z,30.2791,-87.5561,1.423,7.26,1111122 
DISL,ioos:station:DISL:PPTA:1,2012-12-02T06:00:00Z,30.2791,-87.5561,1.431,7.33,1111122 
DISL,ioos:station:DISL:PPTA:1,2012-12-02T06:30:00Z,30.2791,-87.5561,1.425,7.41,1111122 
DISL,ioos:station:DISL:PPTA:1,2012-12-02T07:00:00Z,30.2791,-87.5561,1.401,7.48,1111122 
DISL,ioos:station:DISL:PPTA:1,2012-12-02T07:30:00Z,30.2791,-87.5561,1.379,7.37,1111122 
DISL,ioos:station:DISL:PPTA:1,2012-12-02T08:00:00Z,30.2791,-87.5561,1.364,7.35,1111122 
DISL,ioos:station:DISL:PPTA:1,2012-12-02T08:30:00Z,30.2791,-87.5561,1.348,8.08,1111122 
DISL,ioos:station:DISL:PPTA:1,2012-12-02T09:00:00Z,30.2791,-87.5561,1.325,7.79,1111122 
DISL,ioos:station:DISL:PPTA:1,2012-12-02T09:30:00Z,30.2791,-87.5561,1.307,7.51,1111122 
DISL,ioos:station:DISL:PPTA:1,2012-12-02T10:00:00Z,30.2791,-87.5561,1.293,7.53,1111122 
DISL,ioos:station:DISL:PPTA:1,2012-12-02T10:30:00Z,30.2791,-87.5561,1.278,7.48,1111122 
DISL,ioos:station:DISL:PPTA:1,2012-12-02T11:00:00Z,30.2791,-87.5561,1.263,7.57,1111122 
DISL,ioos:station:DISL:PPTA:1,2012-12-02T11:30:00Z,30.2791,-87.5561,1.248,7.54,1111122 
DISL,ioos:station:DISL:PPTA:1,2012-12-02T12:00:00Z,30.2791,-87.5561,1.226,7.6,1111122 
DISL,ioos:station:DISL:PPTA:1,2012-12-02T12:30:00Z,30.2791,-87.5561,1.214,7.62,1111122 
DISL,ioos:station:DISL:PPTA:1,2012-12-02T13:00:00Z,30.2791,-87.5561,1.208,7.83,1111122 
DISL,ioos:station:DISL:PPTA:1,2012-12-02T13:30:00Z,30.2791,-87.5561,1.195,7.9,1111122 
DISL,ioos:station:DISL:PPTA:1,2012-12-02T14:00:00Z,30.2791,-87.5561,1.181,7.95,1111122 
DISL,ioos:station:DISL:PPTA:1,2012-12-02T14:30:00Z,30.2791,-87.5561,1.175,7.96,1111122 
DISL,ioos:station:DISL:PPTA:1,2012-12-02T15:00:00Z,30.2791,-87.5561,1.164,7.98,1111122 
DISL,ioos:station:DISL:PPTA:1,2012-12-02T15:30:00Z,30.2791,-87.5561,1.153,7.98,1111122 
DISL,ioos:station:DISL:PPTA:1,2012-12-02T16:00:00Z,30.2791,-87.5561,1.153,8.06,1111122 
DISL,ioos:station:DISL:PPTA:1,2012-12-02T16:30:00Z,30.2791,-87.5561,1.154,8.11,1111122 
DISL,ioos:station:DISL:PPTA:1,2012-12-02T17:00:00Z,30.2791,-87.5561,1.146,8.16,1111122 
DISL,ioos:station:DISL:PPTA:1,2012-12-02T17:30:00Z,30.2791,-87.5561,1.14,8.16,1111122 
DISL,ioos:station:DISL:PPTA:1,2012-12-02T18:00:00Z,30.2791,-87.5561,1.168,8.39,1111122 
DISL,ioos:station:DISL:PPTA:1,2012-12-02T18:30:00Z,30.2791,-87.5561,1.17,8.52,1111122 
DISL,ioos:station:DISL:PPTA:1,2012-12-02T19:00:00Z,30.2791,-87.5561,1.17,8.29,1111122 
DISL,ioos:station:DISL:PPTA:1,2012-12-02T19:30:00Z,30.2791,-87.5561,1.182,8.35,1111122 
DISL,ioos:station:DISL:PPTA:1,2012-12-02T20:00:00Z,30.2791,-87.5561,1.193,8.37,1111122 
DISL,ioos:station:DISL:PPTA:1,2012-12-02T20:30:00Z,30.2791,-87.5561,1.188,8.28,1111122 
DISL,ioos:station:DISL:PPTA:1,2012-12-02T21:00:00Z,30.2791,-87.5561,1.21,8.28,1111122 
DISL,ioos:station:DISL:PPTA:1,2012-12-02T21:30:00Z,30.2791,-87.5561,1.222,8.37,1111122 
DISL,ioos:station:DISL:PPTA:1,2012-12-02T22:00:00Z,30.2791,-87.5561,1.219,8.18,1111122 
DISL,ioos:station:DISL:PPTA:1,2012-12-02T22:30:00Z,30.2791,-87.5561,1.242,8.11,1111122 
DISL,ioos:station:DISL:PPTA:1,2012-12-02T23:00:00Z,30.2791,-87.5561,1.256,7.81,1111122 
DISL,ioos:station:DISL:PPTA:1,2012-12-02T23:30:00Z,30.2791,-87.5561,1.267,7.82,1111122 
DISL,ioos:station:DISL:PPTA:1,2012-12-03T00:00:00Z,30.2791,-87.5561,1.287,7.6,1111122 
DISL,ioos:station:DISL:PPTA:1,2012-12-03T00:30:00Z,30.2791,-87.5561,1.299,7.55,1111122 
DISL,ioos:station:DISL:PPTA:1,2012-12-03T01:00:00Z,30.2791,-87.5561,1.321,7.53,1111122 
DISL,ioos:station:DISL:PPTA:1,2012-12-03T01:30:00Z,30.2791,-87.5561,1.334,7.51,1111122 
DISL,ioos:station:DISL:PPTA:1,2012-12-03T02:00:00Z,30.2791,-87.5561,1.36,7.35,1111122 
DISL,ioos:station:DISL:PPTA:1,2012-12-03T02:30:00Z,30.2791,-87.5561,1.378,7.35,1111122 
DISL,ioos:station:DISL:PPTA:1,2012-12-03T03:00:00Z,30.2791,-87.5561,1.399,7.16,1111122 
DISL,ioos:station:DISL:PPTA:1,2012-12-03T03:30:00Z,30.2791,-87.5561,1.405,7.37,1111122 
DISL,ioos:station:DISL:PPTA:1,2012-12-03T04:00:00Z,30.2791,-87.5561,1.402,7.41,1111122 
DISL,ioos:station:DISL:PPTA:1,2012-12-03T04:30:00Z,30.2791,-87.5561,1.405,7.18,1111122 
DISL,ioos:station:DISL:PPTA:1,2012-12-03T05:00:00Z,30.2791,-87.5561,1.402,7.31,1111122 
DISL,ioos:station:DISL:PPTA:1,2012-12-03T05:30:00Z,30.2791,-87.5561,1.407,7.29,1111122 
DISL,ioos:station:DISL:PPTA:1,2012-12-03T06:00:00Z,30.2791,-87.5561,1.408,7.35,1111122 
DISL,ioos:station:DISL:PPTA:1,2012-12-03T06:30:00Z,30.2791,-87.5561,1.406,7.23,1111122 
DISL,ioos:station:DISL:PPTA:1,2012-12-03T07:00:00Z,30.2791,-87.5561,1.408,7.13,1111122 
DISL,ioos:station:DISL:PPTA:1,2012-12-03T07:30:00Z,30.2791,-87.5561,1.394,7.32,1111122 
DISL,ioos:station:DISL:PPTA:1,2012-12-03T08:00:00Z,30.2791,-87.5561,1.387,7.37,1111122 
DISL,ioos:station:DISL:PPTA:1,2012-12-03T08:30:00Z,30.2791,-87.5561,1.36,7.24,1111122 
DISL,ioos:station:DISL:PPTA:1,2012-12-03T09:00:00Z,30.2791,-87.5561,1.341,7.3,1111122 
DISL,ioos:station:DISL:PPTA:1,2012-12-03T09:30:00Z,30.2791,-87.5561,1.326,7.83,1111122 
DISL,ioos:station:DISL:PPTA:1,2012-12-03T10:00:00Z,30.2791,-87.5561,1.299,7.63,1111122 
DISL,ioos:station:DISL:PPTA:1,2012-12-03T10:30:00Z,30.2791,-87.5561,1.286,7.52,1111122 
DISL,ioos:station:DISL:PPTA:1,2012-12-03T11:00:00Z,30.2791,-87.5561,1.274,7.38,1111122 
DISL,ioos:station:DISL:PPTA:1,2012-12-03T11:30:00Z,30.2791,-87.5561,1.26,7.34,1111122 
DISL,ioos:station:DISL:PPTA:1,2012-12-03T12:00:00Z,30.2791,-87.5561,1.246,7.43,1111122 
DISL,ioos:station:DISL:PPTA:1,2012-12-03T12:30:00Z,30.2791,-87.5561,1.239,7.55,1111122 
DISL,ioos:station:DISL:PPTA:1,2012-12-03T13:00:00Z,30.2791,-87.5561,1.224,7.71,1111122 
DISL,ioos:station:DISL:PPTA:1,2012-12-03T13:30:00Z,30.2791,-87.5561,1.213,7.77,1111122 
DISL,ioos:station:DISL:PPTA:1,2012-12-03T14:00:00Z,30.2791,-87.5561,1.207,7.81,1111122 
DISL,ioos:station:DISL:PPTA:1,2012-12-03T14:30:00Z,30.2791,-87.5561,1.203,7.85,1111122 
DISL,ioos:station:DISL:PPTA:1,2012-12-03T15:00:00Z,30.2791,-87.5561,1.191,7.74,1111122 
DISL,ioos:station:DISL:PPTA:1,2012-12-03T15:30:00Z,30.2791,-87.5561,1.187,7.75,1111122 
DISL,ioos:station:DISL:PPTA:1,2012-12-03T16:00:00Z,30.2791,-87.5561,1.178,7.81,1111122 
DISL,ioos:station:DISL:PPTA:1,2012-12-03T16:30:00Z,30.2791,-87.5561,1.177,7.74,1111122 
DISL,ioos:station:DISL:PPTA:1,2012-12-03T17:00:00Z,30.2791,-87.5561,1.177,7.84,1111122 
DISL,ioos:station:DISL:PPTA:1,2012-12-03T17:30:00Z,30.2791,-87.5561,1.181,7.88,1111122 
DISL,ioos:station:DISL:PPTA:1,2012-12-03T18:00:00Z,30.2791,-87.5561,1.181,7.95,1111122 
DISL,ioos:station:DISL:PPTA:1,2012-12-03T18:30:00Z,30.2791,-87.5561,1.192,8.3,1111122 
DISL,ioos:station:DISL:PPTA:1,2012-12-03T19:00:00Z,30.2791,-87.5561,1.192,8.04,1111122 
DISL,ioos:station:DISL:PPTA:1,2012-12-03T19:30:00Z,30.2791,-87.5561,1.197,8.03,1111122 
DISL,ioos:station:DISL:PPTA:1,2012-12-03T20:00:00Z,30.2791,-87.5561,1.2,8.29,1111122 
DISL,ioos:station:DISL:PPTA:1,2012-12-03T20:30:00Z,30.2791,-87.5561,1.215,8.13,1111122 
DISL,ioos:station:DISL:PPTA:1,2012-12-03T21:00:00Z,30.2791,-87.5561,1.22,8.15,1111122 
DISL,ioos:station:DISL:PPTA:1,2012-12-03T21:30:00Z,30.2791,-87.5561,1.222,8.19,1111122 
DISL,ioos:station:DISL:PPTA:1,2012-12-03T22:00:00Z,30.2791,-87.5561,1.238,7.82,1111122 
DISL,ioos:station:DISL:PPTA:1,2012-12-03T22:30:00Z,30.2791,-87.5561,1.243,7.7,1111122 
DISL,ioos:station:DISL:PPTA:1,2012-12-03T23:00:00Z,30.2791,-87.5561,1.257,7.56,1111122 
DISL,ioos:station:DISL:PPTA:1,2012-12-03T23:30:00Z,30.2791,-87.5561,1.262,7.46,1111122 
DISL,ioos:station:DISL:PPTA:1,2012-12-04T00:00:00Z,30.2791,-87.5561,1.284,7.27,1111122 
DISL,ioos:station:DISL:PPTA:1,2012-12-04T00:30:00Z,30.2791,-87.5561,1.303,7.38,1111122 
DISL,ioos:station:DISL:PPTA:1,2012-12-04T01:00:00Z,30.2791,-87.5561,1.334,7.26,1111122 
DISL,ioos:station:DISL:PPTA:1,2012-12-04T01:30:00Z,30.2791,-87.5561,1.349,7.26,1111122 
DISL,ioos:station:DISL:PPTA:1,2012-12-04T02:00:00Z,30.2791,-87.5561,1.36,7.19,1111122 
DISL,ioos:station:DISL:PPTA:1,2012-12-04T02:30:00Z,30.2791,-87.5561,1.389,7.2,1111122 
DISL,ioos:station:DISL:PPTA:1,2012-12-04T03:00:00Z,30.2791,-87.5561,1.39,7.16,1111122 
DISL,ioos:station:DISL:PPTA:1,2012-12-04T03:30:00Z,30.2791,-87.5561,1.418,7.17,1111122 
DISL,ioos:station:DISL:PPTA:1,2012-12-04T04:00:00Z,30.2791,-87.5561,1.415,7.22,1111122 
DISL,ioos:station:DISL:PPTA:1,2012-12-04T04:30:00Z,30.2791,-87.5561,1.418,7.12,1111122 
DISL,ioos:station:DISL:PPTA:1,2012-12-04T05:00:00Z,30.2791,-87.5561,1.438,7.32,1111122 
DISL,ioos:station:DISL:PPTA:1,2012-12-04T05:30:00Z,30.2791,-87.5561,1.43,7.18,1111122 
DISL,ioos:station:DISL:PPTA:1,2012-12-04T06:00:00Z,30.2791,-87.5561,1.437,7.27,1111122 
DISL,ioos:station:DISL:PPTA:1,2012-12-04T06:30:00Z,30.2791,-87.5561,1.448,7.14,1111122 
DISL,ioos:station:DISL:PPTA:1,2012-12-04T07:00:00Z,30.2791,-87.5561,1.449,7.12,1111122 
DISL,ioos:station:DISL:PPTA:1,2012-12-04T07:30:00Z,30.2791,-87.5561,1.447,7.29,1111122 
DISL,ioos:station:DISL:PPTA:1,2012-12-04T08:00:00Z,30.2791,-87.5561,1.436,7.11,1111122 
DISL,ioos:station:DISL:PPTA:1,2012-12-04T08:30:00Z,30.2791,-87.5561,1.434,7.28,1111122 
DISL,ioos:station:DISL:PPTA:1,2012-12-04T09:00:00Z,30.2791,-87.5561,1.403,7.2,1111122 
DISL,ioos:station:DISL:PPTA:1,2012-12-04T09:30:00Z,30.2791,-87.5561,1.397,7.34,1111122 
DISL,ioos:station:DISL:PPTA:1,2012-12-04T10:00:00Z,30.2791,-87.5561,1.388,7.38,1111122 
DISL,ioos:station:DISL:PPTA:1,2012-12-04T10:30:00Z,30.2791,-87.5561,1.372,7.36,1111122 
DISL,ioos:station:DISL:PPTA:1,2012-12-04T11:00:00Z,30.2791,-87.5561,1.36,7.41,1111122 
DISL,ioos:station:DISL:PPTA:1,2012-12-04T11:30:00Z,30.2791,-87.5561,1.354,7.29,1111122 
DISL,ioos:station:DISL:PPTA:1,2012-12-04T12:00:00Z,30.2791,-87.5561,1.338,7.17,1111122 
DISL,ioos:station:DISL:PPTA:1,2012-12-04T12:30:00Z,30.2791,-87.5561,1.33,7.13,1111122 
DISL,ioos:station:DISL:PPTA:1,2012-12-04T13:00:00Z,30.2791,-87.5561,1.314,7.18,1111122 
DISL,ioos:station:DISL:PPTA:1,2012-12-04T13:30:00Z,30.2791,-87.5561,1.312,7.58,1111122 
DISL,ioos:station:DISL:PPTA:1,2012-12-04T14:00:00Z,30.2791,-87.5561,1.297,7.49,1111122 
DISL,ioos:station:DISL:PPTA:1,2012-12-04T14:30:00Z,30.2791,-87.5561,1.292,7.52,1111122 
DISL,ioos:station:DISL:PPTA:1,2012-12-04T15:00:00Z,30.2791,-87.5561,1.291,7.73,1111122 
DISL,ioos:station:DISL:PPTA:1,2012-12-04T15:30:00Z,30.2791,-87.5561,1.27,7.58,1111122 
DISL,ioos:station:DISL:PPTA:1,2012-12-04T16:00:00Z,30.2791,-87.5561,1.261,7.63,1111122 
DISL,ioos:station:DISL:PPTA:1,2012-12-04T16:30:00Z,30.2791,-87.5561,1.259,7.76,1111122 
DISL,ioos:station:DISL:PPTA:1,2012-12-04T17:00:00Z,30.2791,-87.5561,1.245,7.63,1111122 
DISL,ioos:station:DISL:PPTA:1,2012-12-04T17:30:00Z,30.2791,-87.5561,1.254,7.7,1111122 
DISL,ioos:station:DISL:PPTA:1,2012-12-04T18:00:00Z,30.2791,-87.5561,1.247,7.89,1111122 
DISL,ioos:station:DISL:PPTA:1,2012-12-04T18:30:00Z,30.2791,-87.5561,1.24,8.13,1111122 
DISL,ioos:station:DISL:PPTA:1,2012-12-04T19:00:00Z,30.2791,-87.5561,1.245,8.09,1111122 
DISL,ioos:station:DISL:PPTA:1,2012-12-04T19:30:00Z,30.2791,-87.5561,1.239,8.02,1111122 
DISL,ioos:station:DISL:PPTA:1,2012-12-04T20:00:00Z,30.2791,-87.5561,1.258,7.98,1111122 
DISL,ioos:station:DISL:PPTA:1,2012-12-04T20:30:00Z,30.2791,-87.5561,1.258,7.83,1111122 
DISL,ioos:station:DISL:PPTA:1,2012-12-04T21:00:00Z,30.2791,-87.5561,1.262,7.85,1111122 
DISL,ioos:station:DISL:PPTA:1,2012-12-04T21:30:00Z,30.2791,-87.5561,1.268,7.77,1111122 
DISL,ioos:station:DISL:PPTA:1,2012-12-04T22:00:00Z,30.2791,-87.5561,1.277,7.84,1111122 
DISL,ioos:station:DISL:PPTA:1,2012-12-04T22:30:00Z,30.2791,-87.5561,1.265,7.72,1111122 
DISL,ioos:station:DISL:PPTA:1,2012-12-04T23:00:00Z,30.2791,-87.5561,1.28,7.67,1111122 
DISL,ioos:station:DISL:PPTA:1,2012-12-04T23:30:00Z,30.2791,-87.5561,1.293,7.51,1111122 
DISL,ioos:station:DISL:PPTA:1,2012-12-05T00:00:00Z,30.2791,-87.5561,1.3,7.59,1111122 
DISL,ioos:station:DISL:PPTA:1,2012-12-05T00:30:00Z,30.2791,-87.5561,1.309,7.54,1111122 
DISL,ioos:station:DISL:PPTA:1,2012-12-05T01:00:00Z,30.2791,-87.5561,1.328,7.38,1111122 
DISL,ioos:station:DISL:PPTA:1,2012-12-05T01:30:00Z,30.2791,-87.5561,1.333,7.58,1111122 
DISL,ioos:station:DISL:PPTA:1,2012-12-05T02:00:00Z,30.2791,-87.5561,1.355,7.33,1111122 
DISL,ioos:station:DISL:PPTA:1,2012-12-05T02:30:00Z,30.2791,-87.5561,1.356,7.38,1111122 
DISL,ioos:station:DISL:PPTA:1,2012-12-05T03:00:00Z,30.2791,-87.5561,1.361,7.32,1111122 
DISL,ioos:station:DISL:PPTA:1,2012-12-05T03:30:00Z,30.2791,-87.5561,1.374,7.27,1111122 
DISL,ioos:station:DISL:PPTA:1,2012-12-05T04:00:00Z,30.2791,-87.5561,1.391,7.36,1111122 
DISL,ioos:station:DISL:PPTA:1,2012-12-05T04:30:00Z,30.2791,-87.5561,1.387,7.31,1111122 
DISL,ioos:station:DISL:PPTA:1,2012-12-05T05:00:00Z,30.2791,-87.5561,1.412,7.28,1111122 
DISL,ioos:station:DISL:PPTA:1,2012-12-05T05:30:00Z,30.2791,-87.5561,1.398,7.3,1111122 
DISL,ioos:station:DISL:PPTA:1,2012-12-05T06:00:00Z,30.2791,-87.5561,1.381,7.26,1111122 
DISL,ioos:station:DISL:PPTA:1,2012-12-05T06:30:00Z,30.2791,-87.5561,1.402,7.06,1111122 
DISL,ioos:station:DISL:PPTA:1,2012-12-05T07:00:00Z,30.2791,-87.5561,1.394,7.29,1111122 
DISL,ioos:station:DISL:PPTA:1,2012-12-05T07:30:00Z,30.2791,-87.5561,1.381,7.08,1111122 
DISL,ioos:station:DISL:PPTA:1,2012-12-05T08:00:00Z,30.2791,-87.5561,1.4,7.04,1111122 
DISL,ioos:station:DISL:PPTA:1,2012-12-05T08:30:00Z,30.2791,-87.5561,1.39,7.25,1111122 
DISL,ioos:station:DISL:PPTA:1,2012-12-05T09:00:00Z,30.2791,-87.5561,1.382,6.99,1111122 
DISL,ioos:station:DISL:PPTA:1,2012-12-05T09:30:00Z,30.2791,-87.5561,1.359,7.45,1111122 
DISL,ioos:station:DISL:PPTA:1,2012-12-05T10:00:00Z,30.2791,-87.5561,1.333,7.7,1111122 
DISL,ioos:station:DISL:PPTA:1,2012-12-05T10:30:00Z,30.2791,-87.5561,1.329,7.15,1111122 
DISL,ioos:station:DISL:PPTA:1,2012-12-05T11:00:00Z,30.2791,-87.5561,1.32,7.01,1111122 
DISL,ioos:station:DISL:PPTA:1,2012-12-05T11:30:00Z,30.2791,-87.5561,1.32,7.22,1111122 
DISL,ioos:station:DISL:PPTA:1,2012-12-05T12:00:00Z,30.2791,-87.5561,1.292,7.43,1111122 
DISL,ioos:station:DISL:PPTA:1,2012-12-05T12:30:00Z,30.2791,-87.5561,1.29,7.34,1111122 
DISL,ioos:station:DISL:PPTA:1,2012-12-05T13:00:00Z,30.2791,-87.5561,1.278,7.55,1111122 
DISL,ioos:station:DISL:PPTA:1,2012-12-05T13:30:00Z,30.2791,-87.5561,1.254,7.49,1111122 
DISL,ioos:station:DISL:PPTA:1,2012-12-05T14:00:00Z,30.2791,-87.5561,1.236,7.46,1111122 
DISL,ioos:station:DISL:PPTA:1,2012-12-05T14:30:00Z,30.2791,-87.5561,1.245,7.39,1111122 
DISL,ioos:station:DISL:PPTA:1,2012-12-05T15:00:00Z,30.2791,-87.5561,1.232,7.58,1111122 
DISL,ioos:station:DISL:PPTA:1,2012-12-05T15:30:00Z,30.2791,-87.5561,1.234,7.5,1111122 
DISL,ioos:station:DISL:PPTA:1,2012-12-05T16:00:00Z,30.2791,-87.5561,1.239,7.68,1111122 
DISL,ioos:station:DISL:PPTA:1,2012-12-05T16:30:00Z,30.2791,-87.5561,1.228,7.63,1111122 
DISL,ioos:station:DISL:PPTA:1,2012-12-05T17:00:00Z,30.2791,-87.5561,1.22,7.72,1111122 
DISL,ioos:station:DISL:PPTA:1,2012-12-05T17:30:00Z,30.2791,-87.5561,1.204,7.73,1111122 
DISL,ioos:station:DISL:PPTA:1,2012-12-05T18:00:00Z,30.2791,-87.5561,1.22,8.04,1111122 
DISL,ioos:station:DISL:PPTA:1,2012-12-05T18:30:00Z,30.2791,-87.5561,1.225,7.84,1111122 
DISL,ioos:station:DISL:PPTA:1,2012-12-05T19:00:00Z,30.2791,-87.5561,1.238,7.83,1111122 
DISL,ioos:station:DISL:PPTA:1,2012-12-05T19:30:00Z,30.2791,-87.5561,1.22,8.06,1111122 
DISL,ioos:station:DISL:PPTA:1,2012-12-05T20:00:00Z,30.2791,-87.5561,1.227,7.83,1111122 
DISL,ioos:station:DISL:PPTA:1,2012-12-05T20:30:00Z,30.2791,-87.5561,1.234,7.89,1111122 
DISL,ioos:station:DISL:PPTA:1,2012-12-05T21:00:00Z,30.2791,-87.5561,1.255,7.7,1111122 
DISL,ioos:station:DISL:PPTA:1,2012-12-05T21:30:00Z,30.2791,-87.5561,1.246,7.87,1111122 
DISL,ioos:station:DISL:PPTA:1,2012-12-05T22:00:00Z,30.2791,-87.5561,1.262,7.48,1111122 
DISL,ioos:station:DISL:PPTA:1,2012-12-05T22:30:00Z,30.2791,-87.5561,1.277,7.73,1111122 
DISL,ioos:station:DISL:PPTA:1,2012-12-05T23:00:00Z,30.2791,-87.5561,1.279,7.51,1111122 
DISL,ioos:station:DISL:PPTA:1,2012-12-05T23:30:00Z,30.2791,-87.5561,1.287,7.32,1111122 
DISL,ioos:station:DISL:PPTA:1,2012-12-06T00:00:00Z,30.2791,-87.5561,1.295,7.34,1111122 
DISL,ioos:station:DISL:PPTA:1,2012-12-06T00:30:00Z,30.2791,-87.5561,1.29,7.37,1111122 
DISL,ioos:station:DISL:PPTA:1,2012-12-06T01:00:00Z,30.2791,-87.5561,1.287,7.16,1111122 
DISL,ioos:station:DISL:PPTA:1,2012-12-06T01:30:00Z,30.2791,-87.5561,1.309,7.21,1111122 
DISL,ioos:station:DISL:PPTA:1,2012-12-06T02:00:00Z,30.2791,-87.5561,1.336,7.1,1111122 
DISL,ioos:station:DISL:PPTA:1,2012-12-06T02:30:00Z,30.2791,-87.5561,1.341,7.34,1111122 
DISL,ioos:station:DISL:PPTA:1,2012-12-06T03:00:00Z,30.2791,-87.5561,1.343,7.14,1111122 
DISL,ioos:station:DISL:PPTA:1,2012-12-06T03:30:00Z,30.2791,-87.5561,1.353,7.14,1111122 
DISL,ioos:station:DISL:PPTA:1,2012-12-06T04:00:00Z,30.2791,-87.5561,1.347,7.14,1111122 
DISL,ioos:station:DISL:PPTA:1,2012-12-06T04:30:00Z,30.2791,-87.5561,1.359,7.18,1111122 
DISL,ioos:station:DISL:PPTA:1,2012-12-06T05:00:00Z,30.2791,-87.5561,1.357,7.08,1111122 
DISL,ioos:station:DISL:PPTA:1,2012-12-06T05:30:00Z,30.2791,-87.5561,1.373,7.01,1111122 
DISL,ioos:station:DISL:PPTA:1,2012-12-06T06:00:00Z,30.2791,-87.5561,1.358,7.15,1111122 
DISL,ioos:station:DISL:PPTA:1,2012-12-06T06:30:00Z,30.2791,-87.5561,1.362,6.88,1111122 
DISL,ioos:station:DISL:PPTA:1,2012-12-06T07:00:00Z,30.2791,-87.5561,1.37,7.01,1111122 
DISL,ioos:station:DISL:PPTA:1,2012-12-06T07:30:00Z,30.2791,-87.5561,1.353,7.01,1111122 
DISL,ioos:station:DISL:PPTA:1,2012-12-06T08:00:00Z,30.2791,-87.5561,1.358,7.5,1111122 
DISL,ioos:station:DISL:PPTA:1,2012-12-06T08:30:00Z,30.2791,-87.5561,1.362,7.47,1111122 
DISL,ioos:station:DISL:PPTA:1,2012-12-06T09:00:00Z,30.2791,-87.5561,1.345,7.11,1111122 
DISL,ioos:station:DISL:PPTA:1,2012-12-06T09:30:00Z,30.2791,-87.5561,1.341,7.39,1111122 
DISL,ioos:station:DISL:PPTA:1,2012-12-06T10:00:00Z,30.2791,-87.5561,1.35,7.27,1111122 
DISL,ioos:station:DISL:PPTA:1,2012-12-06T10:30:00Z,30.2791,-87.5561,1.336,6.94,1111122 
DISL,ioos:station:DISL:PPTA:1,2012-12-06T11:00:00Z,30.2791,-87.5561,1.327,7.16,1111122 
DISL,ioos:station:DISL:PPTA:1,2012-12-06T11:30:00Z,30.2791,-87.5561,1.311,7.47,1111122 
DISL,ioos:station:DISL:PPTA:1,2012-12-06T12:00:00Z,30.2791,-87.5561,1.299,7.43,1111122 
DISL,ioos:station:DISL:PPTA:1,2012-12-06T12:30:00Z,30.2791,-87.5561,1.289,7.5,1111122 
DISL,ioos:station:DISL:PPTA:1,2012-12-06T13:00:00Z,30.2791,-87.5561,1.302,7.48,1111122 
DISL,ioos:station:DISL:PPTA:1,2012-12-06T13:30:00Z,30.2791,-87.5561,1.273,7.47,1111122 
DISL,ioos:station:DISL:PPTA:1,2012-12-06T14:00:00Z,30.2791,-87.5561,1.264,7.66,1111122 
DISL,ioos:station:DISL:PPTA:1,2012-12-06T14:30:00Z,30.2791,-87.5561,1.261,7.56,1111122 
DISL,ioos:station:DISL:PPTA:1,2012-12-06T15:00:00Z,30.2791,-87.5561,1.272,7.68,1111122 
DISL,ioos:station:DISL:PPTA:1,2012-12-06T15:30:00Z,30.2791,-87.5561,1.264,7.56,1111122 